This is the latest recevied weather packets stored in our database for station/object KY0TEQ-13. If no packets are shown the sender has not sent any weather packets the latest 10 day(s).
| Time | Temp. | Humidity | Pressure | Rain* | Wind** | Luminosity | Snow |
|---|---|---|---|---|---|---|---|
| 1777843672 | 19.44° C | 18% | 1302.3 hPa | 0 mm | - | 689 W/m² | - |
| 1777843369 | 18.33° C | 21% | 1302.6 hPa | 0 mm | - | 702 W/m² | - |
| 1777843067 | 17.78° C | 19% | 1302.6 hPa | 0 mm | - | 172 W/m² | - |
| 1777842763 | 18.33° C | 20% | 1302.8 hPa | 0 mm | - | 204 W/m² | - |
| 1777842458 | 17.22° C | 20% | 1302.8 hPa | 0 mm | - | 806 W/m² | - |
| 1777841851 | 17.22° C | 20% | 1303 hPa | 0 mm | - | 161 W/m² | - |
| 1777841244 | 18.33° C | 18% | 1303.4 hPa | 0 mm | - | 339 W/m² | - |
| 1777840639 | 17.78° C | 19% | 1303.4 hPa | 0 mm | - | 361 W/m² | - |
| 1777840336 | 18.33° C | 20% | 1303.3 hPa | 0 mm | - | 755 W/m² | - |
| 1777840034 | 17.22° C | 19% | 1303.4 hPa | 0 mm | - | 260 W/m² | - |
| 1777839732 | 17.78° C | 19% | 1303.8 hPa | 0 mm | - | 333 W/m² | - |
| 1777838519 | 17.78° C | 19% | 1304 hPa | 0 mm | - | 928 W/m² | - |
| 1777838211 | 18.33° C | 19% | 1304.1 hPa | 0 mm | - | 971 W/m² | - |
| 1777837908 | 18.89° C | 18% | 1304.1 hPa | 0 mm | - | 769 W/m² | - |
| 1777837605 | 18.89° C | 19% | 1304.1 hPa | 0 mm | - | 870 W/m² | - |
| 1777836388 | 17.78° C | 22% | 1304.6 hPa | 0 mm | - | 835 W/m² | - |
| 1777834569 | 17.22° C | 20% | 1305.2 hPa | 0 mm | - | 838 W/m² | - |
| 1777834268 | 17.78° C | 21% | 1305.4 hPa | 0 mm | - | 831 W/m² | - |
| 1777833357 | 17.22° C | 21% | 1305.7 hPa | 0 mm | - | 743 W/m² | - |
| 1777833054 | 17.22° C | 21% | 1305.8 hPa | 0 mm | - | 783 W/m² | - |
| 1777832753 | 17.22° C | 20% | 1305.8 hPa | 0 mm | - | 815 W/m² | - |
| 1777832147 | 16.67° C | 22% | 1306 hPa | 0 mm | - | 806 W/m² | - |
| 1777831843 | 15.56° C | 23% | 1306.1 hPa | 0 mm | - | 791 W/m² | - |
| 1777831541 | 16.11° C | 23% | 1306.2 hPa | 0 mm | - | 773 W/m² | - |
| 1777831238 | 15.56° C | 26% | 1306.3 hPa | 0 mm | - | 763 W/m² | - |
* Rain latest hour (hover to see other rain measurements)
** Current wind speed in m/s (hover to see current wind gust speed)